Time,TemperatureF,DewpointF,PressureIn,WindDirection,WindDirectionDegrees,WindSpeedMPH,WindSpeedGustMPH,Humidity,HourlyPrecipIn,Conditions,Clouds,dailyrainin,SoftwareType,DateUTC
2013-10-13 00:00:00,48.5,36.5,30.22,WSW,250,0.0,0.0,63,0.00,,,0.00,Wunderground v.1.15,2013-10-13 05:00:00,
2013-10-13 00:10:00,48.5,36.9,30.22,WSW,249,0.0,0.0,64,0.00,,,0.00,Wunderground v.1.15,2013-10-13 05:10:00,
2013-10-13 00:15:00,48.2,36.6,30.22,WSW,250,0.0,0.0,64,0.00,,,0.00,Wunderground v.1.15,2013-10-13 05:15:00,
2013-10-13 00:20:00,48.0,36.8,30.23,WSW,249,0.0,0.0,65,0.00,,,0.00,Wunderground v.1.15,2013-10-13 05:20:00,
2013-10-13 00:25:00,47.8,36.6,30.23,WSW,250,0.0,0.0,65,0.00,,,0.00,Wunderground v.1.15,2013-10-13 05:25:00,
2013-10-13 00:30:00,47.7,36.9,30.23,WSW,250,0.0,0.0,66,0.00,,,0.00,Wunderground v.1.15,2013-10-13 05:30:00,
2013-10-13 00:40:00,47.6,36.4,30.24,WSW,249,0.0,0.0,65,0.00,,,0.00,Wunderground v.1.15,2013-10-13 05:40:00,
2013-10-13 00:45:00,47.7,36.5,30.24,WSW,250,0.0,0.0,65,0.00,,,0.00,Wunderground v.1.15,2013-10-13 05:45:00,
2013-10-13 00:50:00,47.5,36.7,30.24,WSW,250,0.0,0.0,66,0.00,,,0.00,Wunderground v.1.15,2013-10-13 05:50:00,
2013-10-13 00:55:00,47.1,36.7,30.24,WSW,250,0.0,0.0,67,0.00,,,0.00,Wunderground v.1.15,2013-10-13 05:55:00,
2013-10-13 01:00:00,46.8,36.4,30.24,WSW,250,0.0,0.0,67,0.00,,,0.00,Wunderground v.1.15,2013-10-13 06:00:00,
2013-10-13 01:05:00,46.6,36.2,30.24,WSW,250,0.0,0.0,67,0.00,,,0.00,Wunderground v.1.15,2013-10-13 06:05:00,
2013-10-13 01:10:00,46.6,36.2,30.24,WSW,250,0.0,0.0,67,0.00,,,0.00,Wunderground v.1.15,2013-10-13 06:10:00,
2013-10-13 01:20:00,46.7,36.3,30.25,WSW,250,0.0,0.0,67,0.00,,,0.00,Wunderground v.1.15,2013-10-13 06:20:00,
2013-10-13 01:25:00,46.5,36.1,30.25,WSW,249,0.0,0.0,67,0.00,,,0.00,Wunderground v.1.15,2013-10-13 06:25:00,
2013-10-13 01:35:00,46.6,35.8,30.26,WSW,250,0.0,0.0,66,0.00,,,0.00,Wunderground v.1.15,2013-10-13 06:35:00,
2013-10-13 01:45:00,46.5,35.7,30.26,WSW,250,0.0,0.0,66,0.00,,,0.00,Wunderground v.1.15,2013-10-13 06:45:00,
2013-10-13 01:50:00,46.3,35.6,30.26,WSW,250,0.0,0.0,66,0.00,,,0.00,Wunderground v.1.15,2013-10-13 06:50:00,
2013-10-13 01:55:00,46.2,35.5,30.26,WSW,250,0.0,0.0,66,0.00,,,0.00,Wunderground v.1.15,2013-10-13 06:55:00,
2013-10-13 02:00:00,46.2,35.8,30.26,WSW,250,0.0,0.0,67,0.00,,,0.00,Wunderground v.1.15,2013-10-13 07:00:00,
2013-10-13 02:05:00,46.1,35.4,30.26,WSW,251,0.0,0.0,66,0.00,,,0.00,Wunderground v.1.15,2013-10-13 07:05:00,
2013-10-13 02:10:00,46.2,35.5,30.26,WSW,256,0.0,0.0,66,0.00,,,0.00,Wunderground v.1.15,2013-10-13 07:10:00,
2013-10-13 02:15:00,46.3,35.6,30.27,WSW,256,0.0,0.0,66,0.00,,,0.00,Wunderground v.1.15,2013-10-13 07:15:00,
2013-10-13 02:20:00,46.3,35.2,30.27,WSW,256,0.0,0.0,65,0.00,,,0.00,Wunderground v.1.15,2013-10-13 07:20:00,
2013-10-13 02:30:00,46.2,35.1,30.27,WSW,256,0.0,0.0,65,0.00,,,0.00,Wunderground v.1.15,2013-10-13 07:30:00,
2013-10-13 02:35:00,46.0,34.9,30.27,WSW,256,0.0,0.0,65,0.00,,,0.00,Wunderground v.1.15,2013-10-13 07:35:00,
2013-10-13 02:45:00,45.6,34.9,30.27,West,269,0.0,0.0,66,0.00,,,0.00,Wunderground v.1.15,2013-10-13 07:45:00,
2013-10-13 02:50:00,45.5,34.8,30.28,West,269,0.0,0.0,66,0.00,,,0.00,Wunderground v.1.15,2013-10-13 07:50:00,
2013-10-13 02:55:00,45.3,34.6,30.28,West,268,0.0,0.0,66,0.00,,,0.00,Wunderground v.1.15,2013-10-13 07:55:00,
2013-10-13 03:00:00,45.1,34.8,30.28,West,269,0.0,0.0,67,0.00,,,0.00,Wunderground v.1.15,2013-10-13 08:00:00,
2013-10-13 03:05:00,45.0,34.7,30.28,West,268,0.0,0.0,67,0.00,,,0.00,Wunderground v.1.15,2013-10-13 08:05:00,
2013-10-13 03:10:00,44.8,34.5,30.28,West,269,0.0,0.0,67,0.00,,,0.00,Wunderground v.1.15,2013-10-13 08:10:00,
2013-10-13 03:15:00,44.6,34.3,30.28,West,269,0.0,0.0,67,0.00,,,0.00,Wunderground v.1.15,2013-10-13 08:15:00,
2013-10-13 03:20:00,44.5,34.6,30.28,West,268,0.0,0.0,68,0.00,,,0.00,Wunderground v.1.15,2013-10-13 08:20:00,
2013-10-13 03:30:00,44.3,34.4,30.28,West,268,0.0,0.0,68,0.00,,,0.00,Wunderground v.1.15,2013-10-13 08:30:00,
2013-10-13 03:35:00,44.2,34.7,30.29,West,269,0.0,0.0,69,0.00,,,0.00,Wunderground v.1.15,2013-10-13 08:35:00,
2013-10-13 03:45:00,43.8,34.3,30.29,West,269,0.0,0.0,69,0.00,,,0.00,Wunderground v.1.15,2013-10-13 08:45:00,
2013-10-13 03:50:00,43.7,34.6,30.29,West,269,0.0,0.0,70,0.00,,,0.00,Wunderground v.1.15,2013-10-13 08:50:00,
2013-10-13 03:55:00,43.6,34.5,30.29,West,269,0.0,0.0,70,0.00,,,0.00,Wunderground v.1.15,2013-10-13 08:55:00,
2013-10-13 04:00:00,43.3,34.5,30.29,West,269,0.0,0.0,71,0.00,,,0.00,Wunderground v.1.15,2013-10-13 09:00:00,
2013-10-13 04:05:00,43.1,34.3,30.29,West,268,0.0,0.0,71,0.00,,,0.00,Wunderground v.1.15,2013-10-13 09:05:00,
2013-10-13 04:10:00,42.8,34.0,30.29,West,269,0.0,0.0,71,0.00,,,0.00,Wunderground v.1.15,2013-10-13 09:10:00,
2013-10-13 04:15:00,42.7,34.3,30.29,West,269,0.0,0.0,72,0.00,,,0.00,Wunderground v.1.15,2013-10-13 09:15:00,
2013-10-13 04:20:00,42.5,34.1,30.30,West,268,0.0,0.0,72,0.00,,,0.00,Wunderground v.1.15,2013-10-13 09:20:00,
2013-10-13 04:25:00,42.4,34.0,30.30,West,269,0.0,0.0,72,0.00,,,0.00,Wunderground v.1.15,2013-10-13 09:25:00,
2013-10-13 04:35:00,42.4,34.0,30.30,West,269,0.0,0.0,72,0.00,,,0.00,Wunderground v.1.15,2013-10-13 09:35:00,
2013-10-13 04:40:00,42.4,34.0,30.30,West,268,0.0,0.0,72,0.00,,,0.00,Wunderground v.1.15,2013-10-13 09:40:00,
2013-10-13 04:45:00,42.3,33.9,30.30,West,269,0.0,0.0,72,0.00,,,0.00,Wunderground v.1.15,2013-10-13 09:45:00,
2013-10-13 04:55:00,42.1,33.7,30.30,West,268,0.0,0.0,72,0.00,,,0.00,Wunderground v.1.15,2013-10-13 09:55:00,
2013-10-13 05:00:00,42.0,33.6,30.30,West,269,0.0,0.0,72,0.00,,,0.00,Wunderground v.1.15,2013-10-13 10:00:00,
2013-10-13 05:05:00,42.0,33.6,30.31,West,269,0.0,0.0,72,0.00,,,0.00,Wunderground v.1.15,2013-10-13 10:05:00,
2013-10-13 05:10:00,42.0,33.6,30.31,West,269,0.0,0.0,72,0.00,,,0.00,Wunderground v.1.15,2013-10-13 10:10:00,
2013-10-13 05:20:00,42.1,33.4,30.31,West,269,0.0,0.0,71,0.00,,,0.00,Wunderground v.1.15,2013-10-13 10:20:00,
2013-10-13 05:25:00,42.1,33.0,30.31,West,269,0.0,0.0,70,0.00,,,0.00,Wunderground v.1.15,2013-10-13 10:25:00,
2013-10-13 05:30:00,42.0,32.9,30.32,West,269,0.0,0.0,70,0.00,,,0.00,Wunderground v.1.15,2013-10-13 10:30:00,
2013-10-13 05:35:00,41.9,33.2,30.32,West,269,0.0,0.0,71,0.00,,,0.00,Wunderground v.1.15,2013-10-13 10:35:00,
2013-10-13 05:40:00,41.8,33.1,30.32,West,268,0.0,0.0,71,0.00,,,0.00,Wunderground v.1.15,2013-10-13 10:40:00,
2013-10-13 05:45:00,41.7,33.0,30.32,West,269,0.0,0.0,71,0.00,,,0.00,Wunderground v.1.15,2013-10-13 10:45:00,
2013-10-13 05:50:00,41.5,32.8,30.32,West,268,0.0,0.0,71,0.00,,,0.00,Wunderground v.1.15,2013-10-13 10:50:00,
2013-10-13 05:55:00,41.4,32.7,30.33,West,269,0.0,0.0,71,0.00,,,0.00,Wunderground v.1.15,2013-10-13 10:55:00,
2013-10-13 06:05:00,41.3,33.0,30.33,West,268,0.0,0.0,72,0.00,,,0.00,Wunderground v.1.15,2013-10-13 11:05:00,
2013-10-13 06:10:00,41.2,32.9,30.33,West,269,0.0,0.0,72,0.00,,,0.00,Wunderground v.1.15,2013-10-13 11:10:00,
2013-10-13 06:15:00,41.0,32.7,30.33,West,268,0.0,0.0,72,0.00,,,0.00,Wunderground v.1.15,2013-10-13 11:15:00,
2013-10-13 06:20:00,40.8,32.8,30.34,West,269,0.0,0.0,73,0.00,,,0.00,Wunderground v.1.15,2013-10-13 11:20:00,
2013-10-13 06:30:00,40.4,32.8,30.34,West,269,0.0,0.0,74,0.00,,,0.00,Wunderground v.1.15,2013-10-13 11:30:00,
2013-10-13 06:35:00,40.3,32.7,30.34,West,268,0.0,0.0,74,0.00,,,0.00,Wunderground v.1.15,2013-10-13 11:35:00,
2013-10-13 06:40:00,40.1,32.8,30.34,West,269,0.0,0.0,75,0.00,,,0.00,Wunderground v.1.15,2013-10-13 11:40:00,
2013-10-13 06:45:00,39.8,32.5,30.34,West,268,0.0,0.0,75,0.00,,,0.00,Wunderground v.1.15,2013-10-13 11:45:00,
2013-10-13 06:50:00,39.5,32.2,30.34,West,269,0.0,0.0,75,0.00,,,0.00,Wunderground v.1.15,2013-10-13 11:50:00,
2013-10-13 06:55:00,39.3,32.4,30.34,West,268,0.0,0.0,76,0.00,,,0.00,Wunderground v.1.15,2013-10-13 11:55:00,
2013-10-13 07:00:00,39.2,32.3,30.34,West,269,0.0,0.0,76,0.00,,,0.00,Wunderground v.1.15,2013-10-13 12:00:00,
2013-10-13 07:05:00,39.1,32.5,30.35,West,268,0.0,0.0,77,0.00,,,0.00,Wunderground v.1.15,2013-10-13 12:05:00,
2013-10-13 07:15:00,38.9,32.3,30.35,West,269,0.0,0.0,77,0.00,,,0.00,Wunderground v.1.15,2013-10-13 12:15:00,
2013-10-13 07:20:00,38.8,32.2,30.35,West,269,0.0,0.0,77,0.00,,,0.00,Wunderground v.1.15,2013-10-13 12:20:00,
2013-10-13 07:30:00,38.8,32.2,30.35,West,268,0.0,0.0,77,0.00,,,0.00,Wunderground v.1.15,2013-10-13 12:30:00,
2013-10-13 07:35:00,38.7,32.4,30.35,West,269,0.0,0.0,78,0.00,,,0.00,Wunderground v.1.15,2013-10-13 12:35:00,
2013-10-13 07:40:00,38.7,32.4,30.36,West,269,0.0,0.0,78,0.00,,,0.00,Wunderground v.1.15,2013-10-13 12:40:00,
2013-10-13 07:45:00,38.6,32.3,30.36,West,269,0.0,0.0,78,0.00,,,0.00,Wunderground v.1.15,2013-10-13 12:45:00,
2013-10-13 07:50:00,38.5,32.6,30.36,West,269,0.0,0.0,79,0.00,,,0.00,Wunderground v.1.15,2013-10-13 12:50:00,
2013-10-13 07:55:00,38.6,32.6,30.37,West,269,0.0,0.0,79,0.00,,,0.00,Wunderground v.1.15,2013-10-13 12:55:00,
2013-10-13 08:00:00,38.7,32.7,30.37,West,269,0.0,0.0,79,0.00,,,0.00,Wunderground v.1.15,2013-10-13 13:00:00,
2013-10-13 08:05:00,38.8,33.2,30.37,West,268,0.0,0.0,80,0.00,,,0.00,Wunderground v.1.15,2013-10-13 13:05:00,
2013-10-13 08:10:00,39.1,33.5,30.38,West,269,0.0,0.0,80,0.00,,,0.00,Wunderground v.1.15,2013-10-13 13:10:00,
2013-10-13 08:20:00,39.7,33.7,30.38,West,269,0.0,0.0,79,0.00,,,0.00,Wunderground v.1.15,2013-10-13 13:20:00,
2013-10-13 08:25:00,39.9,33.9,30.38,West,269,0.0,0.0,79,0.00,,,0.00,Wunderground v.1.15,2013-10-13 13:25:00,
2013-10-13 08:30:00,40.6,34.3,30.39,West,269,0.0,0.0,78,0.00,,,0.00,Wunderground v.1.15,2013-10-13 13:30:00,
2013-10-13 08:35:00,42.2,35.2,30.39,West,268,0.0,0.0,76,0.00,,,0.00,Wunderground v.1.15,2013-10-13 13:35:00,
2013-10-13 08:40:00,44.5,35.7,30.39,West,269,0.0,0.0,71,0.00,,,0.00,Wunderground v.1.15,2013-10-13 13:40:00,
2013-10-13 08:45:00,46.1,35.7,30.39,West,268,0.0,0.0,67,0.00,,,0.00,Wunderground v.1.15,2013-10-13 13:45:00,
2013-10-13 08:50:00,47.1,35.5,30.40,West,269,0.0,0.0,64,0.00,,,0.00,Wunderground v.1.15,2013-10-13 13:50:00,
2013-10-13 08:55:00,47.7,35.7,30.40,West,269,0.0,0.0,63,0.00,,,0.00,Wunderground v.1.15,2013-10-13 13:55:00,
2013-10-13 09:00:00,48.6,36.2,30.40,West,268,0.0,0.0,62,0.00,,,0.00,Wunderground v.1.15,2013-10-13 14:00:00,
2013-10-13 09:10:00,50.9,36.2,30.41,West,269,0.0,0.0,57,0.00,,,0.00,Wunderground v.1.15,2013-10-13 14:10:00,
2013-10-13 09:15:00,51.7,36.5,30.41,West,268,0.0,0.0,56,0.00,,,0.00,Wunderground v.1.15,2013-10-13 14:15:00,
2013-10-13 09:20:00,52.5,36.3,30.41,West,268,0.0,0.0,54,0.00,,,0.00,Wunderground v.1.15,2013-10-13 14:20:00,
2013-10-13 09:25:00,52.7,36.5,30.42,West,269,0.0,0.0,54,0.00,,,0.00,Wunderground v.1.15,2013-10-13 14:25:00,
2013-10-13 09:30:00,53.0,36.8,30.42,West,268,0.0,0.0,54,0.00,,,0.00,Wunderground v.1.15,2013-10-13 14:30:00,
2013-10-13 09:40:00,53.5,37.7,30.42,West,269,0.0,0.0,55,0.00,,,0.00,Wunderground v.1.15,2013-10-13 14:40:00,
2013-10-13 09:45:00,54.1,38.3,30.42,West,268,0.0,0.0,55,0.00,,,0.00,Wunderground v.1.15,2013-10-13 14:45:00,
2013-10-13 09:50:00,54.8,38.5,30.43,West,269,0.0,0.0,54,0.00,,,0.00,Wunderground v.1.15,2013-10-13 14:50:00,
2013-10-13 09:55:00,55.5,38.6,30.42,West,268,0.0,0.0,53,0.00,,,0.00,Wunderground v.1.15,2013-10-13 14:55:00,
2013-10-13 10:00:00,56.0,39.6,30.43,SSW,193,0.0,0.0,54,0.00,,,0.00,Wunderground v.1.15,2013-10-13 15:00:00,
2013-10-13 10:10:00,55.8,38.4,30.43,ESE,110,0.0,0.0,52,0.00,,,0.00,Wunderground v.1.15,2013-10-13 15:10:00,
2013-10-13 10:15:00,56.1,38.7,30.43,East,96,0.0,0.0,52,0.00,,,0.00,Wunderground v.1.15,2013-10-13 15:15:00,
2013-10-13 10:20:00,56.8,38.9,30.43,East,96,0.0,0.0,51,0.00,,,0.00,Wunderground v.1.15,2013-10-13 15:20:00,
2013-10-13 10:25:00,56.7,38.8,30.43,East,99,0.0,0.0,51,0.00,,,0.00,Wunderground v.1.15,2013-10-13 15:25:00,
2013-10-13 10:30:00,57.1,38.6,30.43,East,96,0.0,0.0,50,0.00,,,0.00,Wunderground v.1.15,2013-10-13 15:30:00,
2013-10-13 10:35:00,57.9,38.8,30.43,East,97,0.0,0.0,49,0.00,,,0.00,Wunderground v.1.15,2013-10-13 15:35:00,
2013-10-13 10:40:00,58.5,38.3,30.43,East,96,0.0,0.0,47,0.00,,,0.00,Wunderground v.1.15,2013-10-13 15:40:00,
2013-10-13 10:45:00,58.9,39.2,30.43,ENE,77,0.0,0.0,48,0.00,,,0.00,Wunderground v.1.15,2013-10-13 15:45:00,
2013-10-13 10:50:00,59.7,37.7,30.43,North,9,0.0,0.0,44,0.00,,,0.00,Wunderground v.1.15,2013-10-13 15:50:00,
2013-10-13 10:55:00,59.8,35.4,30.43,East,86,0.0,0.0,40,0.00,,,0.00,Wunderground v.1.15,2013-10-13 15:55:00,
2013-10-13 11:00:00,59.9,37.9,30.43,East,88,0.0,0.0,44,0.00,,,0.00,Wunderground v.1.15,2013-10-13 16:00:00,
2013-10-13 11:10:00,60.5,36.7,30.43,North,5,0.0,0.0,41,0.00,,,0.00,Wunderground v.1.15,2013-10-13 16:10:00,
2013-10-13 11:15:00,60.8,35.7,30.42,NW,307,0.0,0.0,39,0.00,,,0.00,Wunderground v.1.15,2013-10-13 16:15:00,
2013-10-13 11:20:00,60.7,34.9,30.42,East,94,0.0,0.0,38,0.00,,,0.00,Wunderground v.1.15,2013-10-13 16:20:00,
2013-10-13 11:25:00,60.7,36.8,30.42,East,94,0.0,0.0,41,0.00,,,0.00,Wunderground v.1.15,2013-10-13 16:25:00,
2013-10-13 11:30:00,61.1,37.2,30.42,East,96,0.0,0.0,41,0.00,,,0.00,Wunderground v.1.15,2013-10-13 16:30:00,
2013-10-13 11:35:00,61.3,36.8,30.42,East,90,0.0,0.0,40,0.00,,,0.00,Wunderground v.1.15,2013-10-13 16:35:00,
2013-10-13 11:40:00,61.0,36.5,30.42,East,95,0.0,0.0,40,0.00,,,0.00,Wunderground v.1.15,2013-10-13 16:40:00,
2013-10-13 11:45:00,60.9,36.4,30.42,NNE,22,0.0,0.0,40,0.00,,,0.00,Wunderground v.1.15,2013-10-13 16:45:00,
2013-10-13 11:55:00,61.0,35.8,30.42,East,101,0.0,0.0,39,0.00,,,0.00,Wunderground v.1.15,2013-10-13 16:55:00,
2013-10-13 12:05:00,62.0,35.4,30.42,North,360,0.0,0.0,37,0.00,,,0.00,Wunderground v.1.15,2013-10-13 17:05:00,
2013-10-13 12:10:00,62.2,34.9,30.41,NNE,32,0.0,0.0,36,0.00,,,0.00,Wunderground v.1.15,2013-10-13 17:10:00,
2013-10-13 12:15:00,62.7,36.7,30.41,North,355,0.0,0.0,38,0.00,,,0.00,Wunderground v.1.15,2013-10-13 17:15:00,
2013-10-13 12:20:00,63.1,35.7,30.41,NNW,332,0.0,0.0,36,0.00,,,0.00,Wunderground v.1.15,2013-10-13 17:20:00,
2013-10-13 12:25:00,63.3,35.9,30.41,NNW,336,0.0,0.0,36,0.00,,,0.00,Wunderground v.1.15,2013-10-13 17:25:00,
2013-10-13 12:30:00,63.3,35.2,30.41,NNE,30,0.0,0.0,35,0.00,,,0.00,Wunderground v.1.15,2013-10-13 17:30:00,
2013-10-13 12:35:00,63.3,35.9,30.41,East,85,0.0,0.0,36,0.00,,,0.00,Wunderground v.1.15,2013-10-13 17:35:00,
2013-10-13 12:40:00,63.5,35.3,30.40,East,84,0.0,0.0,35,0.00,,,0.00,Wunderground v.1.15,2013-10-13 17:40:00,
2013-10-13 12:45:00,63.5,35.3,30.40,NE,54,0.0,0.0,35,0.00,,,0.00,Wunderground v.1.15,2013-10-13 17:45:00,
2013-10-13 12:55:00,64.0,35.8,30.40,North,355,0.0,0.0,35,0.00,,,0.00,Wunderground v.1.15,2013-10-13 17:55:00,
2013-10-13 13:00:00,64.0,35.0,30.39,NW,311,0.0,0.0,34,0.00,,,0.00,Wunderground v.1.15,2013-10-13 18:00:00,
2013-10-13 13:05:00,63.5,36.0,30.39,NW,323,0.0,0.0,36,0.00,,,0.00,Wunderground v.1.15,2013-10-13 18:05:00,
2013-10-13 13:15:00,63.9,35.0,30.39,ENE,69,0.0,0.0,34,0.00,,,0.00,Wunderground v.1.15,2013-10-13 18:15:00,
2013-10-13 13:20:00,64.0,35.8,30.38,ENE,67,0.0,0.0,35,0.00,,,0.00,Wunderground v.1.15,2013-10-13 18:20:00,
2013-10-13 13:25:00,63.5,35.3,30.38,WNW,303,0.0,2.0,35,0.00,,,0.00,Wunderground v.1.15,2013-10-13 18:25:00,
2013-10-13 13:30:00,63.6,35.4,30.38,North,5,0.0,0.0,35,0.00,,,0.00,Wunderground v.1.15,2013-10-13 18:30:00,
2013-10-13 13:35:00,64.0,35.8,30.37,WNW,291,0.0,0.0,35,0.00,,,0.00,Wunderground v.1.15,2013-10-13 18:35:00,
2013-10-13 13:40:00,64.3,35.3,30.37,WNW,303,0.0,0.0,34,0.00,,,0.00,Wunderground v.1.15,2013-10-13 18:40:00,
2013-10-13 13:49:00,64.7,34.9,30.36,NNW,336,0.0,0.0,33,0.00,,,0.00,Wunderground v.1.15,2013-10-13 18:49:00,
2013-10-13 13:55:00,64.4,34.6,30.36,North,5,0.0,0.0,33,0.00,,,0.00,Wunderground v.1.15,2013-10-13 18:55:00,
2013-10-13 14:00:00,63.8,34.9,30.36,West,277,0.0,0.0,34,0.00,,,0.00,Wunderground v.1.15,2013-10-13 19:00:00,
2013-10-13 14:05:00,63.5,35.3,30.37,ESE,121,0.0,0.0,35,0.00,,,0.00,Wunderground v.1.15,2013-10-13 19:05:00,
2013-10-13 14:10:00,63.8,36.3,30.36,East,95,0.0,0.0,36,0.00,,,0.00,Wunderground v.1.15,2013-10-13 19:10:00,
2013-10-13 14:15:00,63.9,35.7,30.36,North,355,0.0,0.0,35,0.00,,,0.00,Wunderground v.1.15,2013-10-13 19:15:00,
2013-10-13 14:25:00,64.7,35.7,30.36,NNE,21,0.0,0.0,34,0.00,,,0.00,Wunderground v.1.15,2013-10-13 19:25:00,
2013-10-13 14:30:00,64.5,35.5,30.36,East,94,0.0,0.0,34,0.00,,,0.00,Wunderground v.1.15,2013-10-13 19:30:00,
2013-10-13 14:35:00,64.0,36.5,30.36,East,94,0.0,0.0,36,0.00,,,0.00,Wunderground v.1.15,2013-10-13 19:35:00,
2013-10-13 14:44:00,64.9,36.6,30.36,North,360,0.0,0.0,35,0.00,,,0.00,Wunderground v.1.15,2013-10-13 19:44:00,
2013-10-13 14:49:00,64.7,35.7,30.36,ESE,105,0.0,0.0,34,0.00,,,0.00,Wunderground v.1.15,2013-10-13 19:49:00,
2013-10-13 14:55:00,64.9,36.6,30.36,North,5,0.0,0.0,35,0.00,,,0.00,Wunderground v.1.15,2013-10-13 19:55:00,
2013-10-13 14:59:00,65.4,37.0,30.36,NNE,17,0.0,0.0,35,0.00,,,0.00,Wunderground v.1.15,2013-10-13 19:59:00,
2013-10-13 15:05:00,65.7,36.5,30.36,North,349,0.0,0.0,34,0.00,,,0.00,Wunderground v.1.15,2013-10-13 20:05:00,
2013-10-13 15:10:00,65.2,36.1,30.36,East,93,0.0,3.0,34,0.00,,,0.00,Wunderground v.1.15,2013-10-13 20:10:00,
2013-10-13 15:15:00,64.3,36.0,30.36,East,101,0.0,3.0,35,0.00,,,0.00,Wunderground v.1.15,2013-10-13 20:15:00,
2013-10-13 15:20:00,64.3,35.3,30.35,NW,322,0.0,0.0,34,0.00,,,0.00,Wunderground v.1.15,2013-10-13 20:20:00,
2013-10-13 15:25:00,64.7,35.7,30.35,NNE,28,0.0,0.0,34,0.00,,,0.00,Wunderground v.1.15,2013-10-13 20:25:00,
2013-10-13 15:35:00,65.6,35.7,30.35,ESE,103,0.0,0.0,33,0.00,,,0.00,Wunderground v.1.15,2013-10-13 20:35:00,
2013-10-13 15:40:00,64.8,36.5,30.35,East,94,0.0,2.0,35,0.00,,,0.00,Wunderground v.1.15,2013-10-13 20:40:00,
2013-10-13 15:50:00,64.5,36.2,30.35,ENE,58,0.0,0.0,35,0.00,,,0.00,Wunderground v.1.15,2013-10-13 20:50:00,
2013-10-13 15:55:00,65.2,36.8,30.35,NW,309,0.0,0.0,35,0.00,,,0.00,Wunderground v.1.15,2013-10-13 20:55:00,
2013-10-13 16:00:00,65.6,35.7,30.35,North,11,0.0,0.0,33,0.00,,,0.00,Wunderground v.1.15,2013-10-13 21:00:00,
2013-10-13 16:05:00,65.8,36.6,30.35,North,11,0.0,0.0,34,0.00,,,0.00,Wunderground v.1.15,2013-10-13 21:05:00,
2013-10-13 16:10:00,65.8,36.6,30.34,East,84,0.0,0.0,34,0.00,,,0.00,Wunderground v.1.15,2013-10-13 21:10:00,
2013-10-13 16:20:00,65.8,36.6,30.34,East,92,0.0,0.0,34,0.00,,,0.00,Wunderground v.1.15,2013-10-13 21:20:00,
2013-10-13 16:25:00,66.2,37.0,30.34,NNE,12,0.0,0.0,34,0.00,,,0.00,Wunderground v.1.15,2013-10-13 21:25:00,
2013-10-13 16:30:00,66.6,37.3,30.34,North,10,0.0,0.0,34,0.00,,,0.00,Wunderground v.1.15,2013-10-13 21:30:00,
2013-10-13 16:35:00,66.3,36.3,30.33,East,93,0.0,2.0,33,0.00,,,0.00,Wunderground v.1.15,2013-10-13 21:35:00,
2013-10-13 16:45:00,65.5,37.1,30.33,ENE,64,0.0,0.0,35,0.00,,,0.00,Wunderground v.1.15,2013-10-13 21:45:00,
2013-10-13 16:50:00,65.3,36.2,30.33,ENE,74,0.0,0.0,34,0.00,,,0.00,Wunderground v.1.15,2013-10-13 21:50:00,
2013-10-13 16:55:00,65.2,36.8,30.33,NNE,28,0.0,0.0,35,0.00,,,0.00,Wunderground v.1.15,2013-10-13 21:55:00,
2013-10-13 17:00:00,65.4,37.0,30.33,East,82,0.0,0.0,35,0.00,,,0.00,Wunderground v.1.15,2013-10-13 22:00:00,
2013-10-13 17:05:00,65.0,36.7,30.33,ENE,69,0.0,0.0,35,0.00,,,0.00,Wunderground v.1.15,2013-10-13 22:05:00,
2013-10-13 17:10:00,64.4,36.1,30.33,ENE,73,0.0,0.0,35,0.00,,,0.00,Wunderground v.1.15,2013-10-13 22:10:00,
2013-10-13 17:20:00,64.4,36.1,30.33,ENE,67,0.0,0.0,35,0.00,,,0.00,Wunderground v.1.15,2013-10-13 22:20:00,
2013-10-13 17:25:00,64.9,38.0,30.33,ENE,67,0.0,0.0,37,0.00,,,0.00,Wunderground v.1.15,2013-10-13 22:25:00,
2013-10-13 17:30:00,64.8,37.2,30.33,ENE,67,0.0,0.0,36,0.00,,,0.00,Wunderground v.1.15,2013-10-13 22:30:00,
2013-10-13 17:35:00,63.7,36.2,30.33,ENE,77,0.0,0.0,36,0.00,,,0.00,Wunderground v.1.15,2013-10-13 22:35:00,
2013-10-13 17:40:00,62.9,35.5,30.33,ENE,78,0.0,0.0,36,0.00,,,0.00,Wunderground v.1.15,2013-10-13 22:40:00,
2013-10-13 17:50:00,62.0,36.7,30.33,East,81,0.0,0.0,39,0.00,,,0.00,Wunderground v.1.15,2013-10-13 22:50:00,
2013-10-13 17:55:00,61.6,37.0,30.33,East,81,0.0,0.0,40,0.00,,,0.00,Wunderground v.1.15,2013-10-13 22:55:00,
2013-10-13 18:00:00,61.3,36.8,30.33,East,81,0.0,0.0,40,0.00,,,0.00,Wunderground v.1.15,2013-10-13 23:00:00,
2013-10-13 18:05:00,60.8,36.3,30.33,East,81,0.0,0.0,40,0.00,,,0.00,Wunderground v.1.15,2013-10-13 23:05:00,
2013-10-13 18:10:00,60.5,36.7,30.33,East,80,0.0,0.0,41,0.00,,,0.00,Wunderground v.1.15,2013-10-13 23:10:00,
2013-10-13 18:15:00,60.2,36.4,30.33,East,81,0.0,0.0,41,0.00,,,0.00,Wunderground v.1.15,2013-10-13 23:15:00,
2013-10-13 18:20:00,59.9,36.1,30.33,East,80,0.0,0.0,41,0.00,,,0.00,Wunderground v.1.15,2013-10-13 23:20:00,
2013-10-13 18:30:00,59.3,36.8,30.33,East,81,0.0,0.0,43,0.00,,,0.00,Wunderground v.1.15,2013-10-13 23:30:00,
2013-10-13 18:35:00,58.9,36.4,30.33,East,81,0.0,0.0,43,0.00,,,0.00,Wunderground v.1.15,2013-10-13 23:35:00,
2013-10-13 18:40:00,58.5,37.2,30.33,East,81,0.0,0.0,45,0.00,,,0.00,Wunderground v.1.15,2013-10-13 23:40:00,
2013-10-13 18:45:00,58.2,36.9,30.33,East,81,0.0,0.0,45,0.00,,,0.00,Wunderground v.1.15,2013-10-13 23:45:00,
2013-10-13 18:50:00,57.5,36.3,30.33,East,81,0.0,0.0,45,0.00,,,0.00,Wunderground v.1.15,2013-10-13 23:50:00,
2013-10-13 18:59:00,56.5,36.5,30.34,East,81,0.0,0.0,47,0.00,,,0.00,Wunderground v.1.15,2013-10-13 23:59:00,
2013-10-13 19:05:00,56.1,36.1,30.34,East,81,0.0,0.0,47,0.00,,,0.00,Wunderground v.1.15,2013-10-14 00:05:00,
2013-10-13 19:10:00,55.6,36.2,30.34,East,81,0.0,0.0,48,0.00,,,0.00,Wunderground v.1.15,2013-10-14 00:10:00,
2013-10-13 19:15:00,55.1,36.3,30.34,East,81,0.0,0.0,49,0.00,,,0.00,Wunderground v.1.15,2013-10-14 00:15:00,
2013-10-13 19:20:00,54.6,36.3,30.34,East,81,0.0,0.0,50,0.00,,,0.00,Wunderground v.1.15,2013-10-14 00:20:00,
2013-10-13 19:25:00,54.2,36.5,30.34,East,81,0.0,0.0,51,0.00,,,0.00,Wunderground v.1.15,2013-10-14 00:25:00,
2013-10-13 19:30:00,53.7,36.0,30.34,East,80,0.0,0.0,51,0.00,,,0.00,Wunderground v.1.15,2013-10-14 00:30:00,
2013-10-13 19:40:00,53.0,36.3,30.34,East,80,0.0,0.0,53,0.00,,,0.00,Wunderground v.1.15,2013-10-14 00:40:00,
2013-10-13 19:45:00,52.7,36.5,30.35,East,81,0.0,0.0,54,0.00,,,0.00,Wunderground v.1.15,2013-10-14 00:45:00,
2013-10-13 19:50:00,52.4,36.2,30.35,East,81,0.0,0.0,54,0.00,,,0.00,Wunderground v.1.15,2013-10-14 00:50:00,
2013-10-13 19:55:00,52.2,36.5,30.34,East,81,0.0,0.0,55,0.00,,,0.00,Wunderground v.1.15,2013-10-14 00:55:00,
2013-10-13 20:00:00,51.8,36.1,30.35,East,81,0.0,0.0,55,0.00,,,0.00,Wunderground v.1.15,2013-10-14 01:00:00,
2013-10-13 20:09:00,51.3,36.1,30.35,East,81,0.0,0.0,56,0.00,,,0.00,Wunderground v.1.15,2013-10-14 01:09:00,
2013-10-13 20:15:00,51.1,35.9,30.35,East,80,0.0,0.0,56,0.00,,,0.00,Wunderground v.1.15,2013-10-14 01:15:00,
2013-10-13 20:20:00,50.9,36.2,30.35,East,81,0.0,0.0,57,0.00,,,0.00,Wunderground v.1.15,2013-10-14 01:20:00,
2013-10-13 20:25:00,50.5,35.8,30.35,East,81,0.0,0.0,57,0.00,,,0.00,Wunderground v.1.15,2013-10-14 01:25:00,
2013-10-13 20:30:00,50.2,35.5,30.35,East,81,0.0,0.0,57,0.00,,,0.00,Wunderground v.1.15,2013-10-14 01:30:00,
2013-10-13 20:40:00,49.7,36.4,30.35,East,80,0.0,0.0,60,0.00,,,0.00,Wunderground v.1.15,2013-10-14 01:40:00,
2013-10-13 20:45:00,49.5,36.2,30.35,East,81,0.0,0.0,60,0.00,,,0.00,Wunderground v.1.15,2013-10-14 01:45:00,
2013-10-13 20:50:00,49.3,36.4,30.35,East,80,0.0,0.0,61,0.00,,,0.00,Wunderground v.1.15,2013-10-14 01:50:00,
2013-10-13 21:00:00,49.2,36.3,30.35,East,81,0.0,0.0,61,0.00,,,0.00,Wunderground v.1.15,2013-10-14 02:00:00,
2013-10-13 21:05:00,49.1,36.2,30.36,East,80,0.0,0.0,61,0.00,,,0.00,Wunderground v.1.15,2013-10-14 02:05:00,
2013-10-13 21:10:00,49.1,35.8,30.36,East,81,0.0,0.0,60,0.00,,,0.00,Wunderground v.1.15,2013-10-14 02:10:00,
2013-10-13 21:15:00,49.0,35.7,30.36,East,80,0.0,0.0,60,0.00,,,0.00,Wunderground v.1.15,2013-10-14 02:15:00,
2013-10-13 21:20:00,48.9,35.6,30.36,East,81,0.0,0.0,60,0.00,,,0.00,Wunderground v.1.15,2013-10-14 02:20:00,
2013-10-13 21:25:00,48.7,35.4,30.36,East,80,0.0,0.0,60,0.00,,,0.00,Wunderground v.1.15,2013-10-14 02:25:00,
2013-10-13 21:34:00,48.2,35.4,30.36,East,80,0.0,0.0,61,0.00,,,0.00,Wunderground v.1.15,2013-10-14 02:34:00,
2013-10-13 21:39:00,48.0,35.6,30.36,East,81,0.0,0.0,62,0.00,,,0.00,Wunderground v.1.15,2013-10-14 02:39:00,
2013-10-13 21:45:00,47.8,35.4,30.36,East,80,0.0,0.0,62,0.00,,,0.00,Wunderground v.1.15,2013-10-14 02:45:00,
2013-10-13 21:50:00,47.7,35.7,30.36,East,80,0.0,0.0,63,0.00,,,0.00,Wunderground v.1.15,2013-10-14 02:50:00,
2013-10-13 21:55:00,47.6,35.6,30.36,East,81,0.0,0.0,63,0.00,,,0.00,Wunderground v.1.15,2013-10-14 02:55:00,
2013-10-13 22:00:00,47.4,35.8,30.36,East,80,0.0,0.0,64,0.00,,,0.00,Wunderground v.1.15,2013-10-14 03:00:00,
2013-10-13 22:05:00,47.3,35.7,30.36,East,81,0.0,0.0,64,0.00,,,0.00,Wunderground v.1.15,2013-10-14 03:05:00,
2013-10-13 22:10:00,47.1,35.5,30.36,East,81,0.0,0.0,64,0.00,,,0.00,Wunderground v.1.15,2013-10-14 03:10:00,
2013-10-13 22:15:00,47.0,35.8,30.36,East,81,0.0,0.0,65,0.00,,,0.00,Wunderground v.1.15,2013-10-14 03:15:00,
2013-10-13 22:24:00,46.8,35.6,30.36,East,81,0.0,0.0,65,0.00,,,0.00,Wunderground v.1.15,2013-10-14 03:24:00,
2013-10-13 22:30:00,46.9,35.4,30.36,East,81,0.0,0.0,64,0.00,,,0.00,Wunderground v.1.15,2013-10-14 03:30:00,
2013-10-13 22:35:00,47.1,35.5,30.36,East,81,0.0,0.0,64,0.00,,,0.00,Wunderground v.1.15,2013-10-14 03:35:00,
2013-10-13 22:40:00,47.0,35.4,30.36,East,81,0.0,0.0,64,0.00,,,0.00,Wunderground v.1.15,2013-10-14 03:40:00,
2013-10-13 22:45:00,46.8,35.6,30.36,East,81,0.0,0.0,65,0.00,,,0.00,Wunderground v.1.15,2013-10-14 03:45:00,
2013-10-13 22:50:00,46.5,35.4,30.36,East,81,0.0,0.0,65,0.00,,,0.00,Wunderground v.1.15,2013-10-14 03:50:00,
2013-10-13 22:59:00,46.0,35.3,30.36,East,81,0.0,0.0,66,0.00,,,0.00,Wunderground v.1.15,2013-10-14 03:59:00,
2013-10-13 23:05:00,45.8,35.5,30.36,East,81,0.0,0.0,67,0.00,,,0.00,Wunderground v.1.15,2013-10-14 04:05:00,
2013-10-13 23:09:00,45.6,35.6,30.36,East,80,0.0,0.0,68,0.00,,,0.00,Wunderground v.1.15,2013-10-14 04:09:00,
2013-10-13 23:15:00,45.5,35.5,30.36,East,81,0.0,0.0,68,0.00,,,0.00,Wunderground v.1.15,2013-10-14 04:15:00,
2013-10-13 23:20:00,45.7,35.4,30.36,East,80,0.0,0.0,67,0.00,,,0.00,Wunderground v.1.15,2013-10-14 04:20:00,
2013-10-13 23:25:00,45.9,35.2,30.36,East,80,0.0,0.0,66,0.00,,,0.00,Wunderground v.1.15,2013-10-14 04:25:00,
2013-10-13 23:30:00,46.1,35.4,30.36,East,81,0.0,0.0,66,0.00,,,0.00,Wunderground v.1.15,2013-10-14 04:30:00,
2013-10-13 23:35:00,46.5,35.4,30.35,East,80,0.0,0.0,65,0.00,,,0.00,Wunderground v.1.15,2013-10-14 04:35:00,
2013-10-13 23:44:00,47.2,34.4,30.35,East,81,0.0,0.0,61,0.00,,,0.00,Wunderground v.1.15,2013-10-14 04:44:00,
2013-10-13 23:49:00,47.5,34.3,30.35,East,81,0.0,0.0,60,0.00,,,0.00,Wunderground v.1.15,2013-10-14 04:49:00,
2013-10-13 23:55:00,47.7,34.1,30.35,East,92,0.0,0.0,59,0.00,,,0.00,Wunderground v.1.15,2013-10-14 04:55:00,